Paso Robles, CA

4:46 PM PST on December 05, 2019 (GMT -0800)
Paso Robles Municipal

Weather History for KPRB - November, 2019

Change the Weather History Date:

Saturday, November 16, 2019

  Actual Average Record
Temperature  
Mean Temperature 56 °F 52 °F  
Max Temperature 75 °F 67 °F 89 °F (2008)
Min Temperature 38 °F 38 °F 25 °F (1958)
Degree Days  
Heating Degree Days 8 13  
Month to date heating degree days 104 168  
Since 1 July heating degree days 272 338  
Cooling Degree Days 0 0  
Month to date cooling degree days 0 0  
Year to date cooling degree days 1063 926  
Growing Degree Days 6 (Base 50)    
Moisture  
Dew Point 42 °F    
Average Humidity 80    
Maximum Humidity 100    
Minimum Humidity 36    
Precipitation  
Precipitation 0.00 in 0.03 in 1.85 in (1965)
Month to date precipitation 0.00 0.53  
Year to date precipitation 11.28 10.27  
Sea Level Pressure  
Sea Level Pressure 30.12 in    
Wind  
Wind Speed 3 mph ()    
Max Wind Speed 13 mph    
Max Gust Speed 16 mph    
Visibility 5.4 miles    
Events Fog    
T = Trace of Precipitation, MM = Missing Value Source: Averaged Metar Reports

Daily Weather History Graph

Daily Weather History Graph

Search for Another Location

Airport or City:

Astronomy

Nov. 16, 2019 Rise Set
Actual Time 6:39 AM PST 4:54 PM PST
Civil Twilight 6:11 AM PST 5:22 PM PST
Nautical Twilight 5:41 AM PST 5:53 PM PST
Astronomical Twilight 5:10 AM PST 6:23 PM PST
Moon 8:36 PM PST (11/16) 10:34 AM PST (11/16)
Length of Visible Light 11h 10m
Length of Day
10h 15m
Waning Gibbous, 81% of the Moon is Illuminated
Nov 16
Waning Gibbous
Nov 19
Last Quarter
Nov 26
New
Dec 3
First Quarter
Dec 11
Full

Hourly Weather History & Observations

Time (PST) Temp. Windchill Dew Point Humidity Pressure Visibility Wind Dir Wind Speed Gust Speed Precip Events Conditions
12:53 AM 43.0 °F 39.5 °F 39.9 °F 89% 30.14 in 10.0 mi NE 5.8 mph - N/A   Clear
1:53 AM 42.1 °F - 39.0 °F 89% 30.14 in 10.0 mi Calm Calm - N/A   Clear
2:42 AM 42.1 °F 38.4 °F 39.0 °F 89% 30.13 in 4.0 mi NNW 5.8 mph - N/A   Scattered Clouds
2:45 AM 41.0 °F 37.1 °F 39.0 °F 93% 30.13 in 0.8 mi NNW 5.8 mph - N/A   Mist
2:53 AM 41.0 °F 37.1 °F 39.9 °F 96% 30.13 in 0.5 mi NNW 5.8 mph - N/A Fog Fog
3:05 AM 41.0 °F 39.0 °F 39.9 °F 96% 30.13 in 0.2 mi North 3.5 mph - N/A Fog Fog
3:53 AM 41.0 °F - 39.9 °F 96% 30.14 in 0.2 mi Calm Calm - N/A Fog Fog
4:39 AM 42.1 °F - 41.0 °F 96% 30.13 in 0.5 mi Calm Calm - N/A Fog Fog
4:53 AM 42.1 °F 40.2 °F 41.0 °F 96% 30.13 in 0.2 mi SE 3.5 mph - N/A Fog Fog
5:18 AM 39.9 °F 37.8 °F 39.9 °F 100% 30.13 in 0.5 mi SE 3.5 mph - N/A Fog Fog
5:30 AM 39.9 °F - 39.9 °F 100% 30.13 in 1.2 mi Calm Calm - N/A   Overcast
5:42 AM 39.9 °F - 39.0 °F 97% 30.14 in 0.8 mi Calm Calm - N/A   Overcast
5:53 AM 39.0 °F 36.8 °F 37.9 °F 96% 30.15 in 0.2 mi NNW 3.5 mph - N/A Fog Fog
6:31 AM 39.9 °F - 39.0 °F 97% 30.15 in 2.0 mi Calm Calm - N/A   Mostly Cloudy
6:34 AM 39.9 °F - 39.0 °F 97% 30.15 in 4.0 mi Calm Calm - N/A   Mostly Cloudy
6:43 AM 39.0 °F - 39.0 °F 100% 30.15 in 2.0 mi Calm Calm - N/A   Mostly Cloudy
6:45 AM 39.0 °F - 39.0 °F 100% 30.15 in 0.8 mi Calm Calm - N/A   Mist
6:53 AM 39.9 °F - 39.0 °F 97% 30.16 in 0.2 mi Calm Calm - N/A Fog Fog
7:17 AM 39.0 °F - 39.0 °F 100% 30.16 in 0.2 mi Calm Calm - N/A Fog Fog
7:44 AM 41.0 °F - 39.9 °F 96% 30.17 in 1.0 mi Calm Calm - N/A   Mist
7:47 AM 42.8 °F - 39.2 °F 87% 30.17 in 2.0 mi Calm Calm - N/A   Overcast
7:53 AM 42.1 °F - 41.0 °F 96% 30.17 in 4.0 mi Calm Calm - N/A   Mostly Cloudy
8:53 AM 50.0 °F - 44.1 °F 80% 30.16 in 10.0 mi Calm Calm - N/A   Clear
9:53 AM 57.9 °F - 48.0 °F 70% 30.15 in 10.0 mi Calm Calm - N/A   Clear
10:53 AM 64.9 °F - 48.9 °F 56% 30.13 in 10.0 mi Calm Calm - N/A   Clear
11:53 AM 66.9 °F - 48.9 °F 52% 30.10 in 10.0 mi West 5.8 mph - N/A   Clear
12:53 PM 72.0 °F - 48.0 °F 43% 30.07 in 10.0 mi NNE 4.6 mph - N/A   Clear
1:53 PM 75.0 °F - 46.9 °F 37% 30.04 in 10.0 mi East 8.1 mph - N/A   Clear
2:53 PM 75.0 °F - 46.0 °F 36% 30.04 in 10.0 mi East 10.4 mph - N/A   Clear
3:53 PM 73.0 °F - 46.9 °F 39% 30.04 in 10.0 mi East 10.4 mph - N/A   Clear
4:53 PM 68.0 °F - 46.0 °F 45% 30.06 in 10.0 mi East 8.1 mph - N/A   Clear
5:53 PM 63.0 °F - 46.0 °F 54% 30.07 in 10.0 mi East 8.1 mph - N/A   Clear
6:53 PM 60.1 °F - 45.0 °F 57% 30.08 in 10.0 mi East 9.2 mph - N/A   Clear
7:53 PM 57.9 °F - 45.0 °F 62% 30.10 in 10.0 mi Variable 3.5 mph - N/A   Clear
8:53 PM 57.0 °F - 46.0 °F 67% 30.10 in 10.0 mi East 3.5 mph - N/A   Clear
9:53 PM 53.1 °F - 44.1 °F 71% 30.11 in 10.0 mi ESE 5.8 mph - N/A   Clear
10:53 PM 51.1 °F - 44.1 °F 77% 30.10 in 10.0 mi NE 4.6 mph - N/A   Clear
11:53 PM 48.0 °F - 42.1 °F 80% 30.10 in 10.0 mi NNW 3.5 mph - N/A   Clear